www.pogodaiklimat.ru
ПОГОДА в Мидвилле
Время
и дата
06:00 28.09
06:13 28.09
06:22 28.09
06:48 28.09
06:53 28.09
07:01 28.09
07:53 28.09
08:00 28.09
08:08 28.09
08:18 28.09
08:53 28.09
09:13 28.09
09:21 28.09
09:36 28.09
09:53 28.09
10:53 28.09
11:17 28.09
11:25 28.09
11:53 28.09
12:53 28.09
13:12 28.09
13:53 28.09
14:01 28.09
14:32 28.09
14:53 28.09
15:53 28.09
16:53 28.09
17:53 28.09
18:53 28.09
19:21 28.09
19:53 28.09
20:53 28.09
21:30 28.09
21:39 28.09
21:47 28.09
21:53 28.09
22:08 28.09
22:37 28.09
22:46 28.09
22:53 28.09
23:21 28.09
23:35 28.09
23:53 28.09
00:53 29.09
01:27 29.09
01:34 29.09
01:50 29.09
01:53 29.09
Ветер
(напр.,м/с)
Видим. Явления Облачность Т
(С)
Тd
(С)
f
(%)
Тe
(С)
Тes
(С)
Комфортность P
(гПа)
Po
(гПа)
Тmin
(С)
Tmax
(С)
R
(мм)
R24
(мм)
S
(см)
З 2 14 км слабый дождь 10/10 180 m
[Ns]
+10.0 +9.4 96 +8 +8 969.9
З 3 3 км сильный дождь, дымка 10/10 120 m
[Ns]
+10.0 +9.4 96 +8 +8 969.9
З 2 5 км слабый дождь, дымка 10/10 180 m
[Ns]
+10.0 +9.4 96 +8 +8 970.2
З 2 3 км слабый дождь, дымка 10/10 420 m
[Ns]
+10.0 +9.0 93 +8 +8 970.5
штиль 0 5 км слабый дождь, дымка 10/10 240 m
[Ns]
+10.6 +9.4 92 +10 +10 1021.7 970.5 +9.4 +10.6 3.6 9.9
штиль 0 13 км слабый дождь 10/10 240 m
[Ns]
+10.6 +9.4 92 +10 +10 970.9
С 3 5 км слабый дождь, дымка 10/10 240 m
[Ns]
+10.6 +10.0 96 +8 +8 1022.5 971.5
С 2 4 км слабый дождь, дымка 10/10 240 m
[Ns]
+10.6 +10.0 96 +9 +9 971.5
С 4 10 км слабый дождь, дымка 10/10 180 m
[Ns]
+10.6 +9.4 92 +8 +8 971.5
С 2 16 км 10/10 240 м +11.1 +10.0 93 +10 +10 971.8
С 4 16 км 10/10 240 м +12.2 +10.0 86 +10 +10 1023.2 972.1
СЗ 4 16 км 10/10 420 м +12.2 +9.4 83 +10 +10 972.5
С 4 16 км 8/8 420 м +11.7 +8.9 83 +10 +10 972.5
С 3 16 км 8/8 390 м +12.8 +10.0 83 +11 +12 972.5
нст 2 16 км 8/8 630 м +13.3 +10.0 80 +13 +14 1023.9 972.8 1.0
СЗ 4 16 км 8/5 570 m
[Ac]
+14.4 +9.4 72 +13 +15 1024.3 973.1
СЗ 4 4 км слабый дождь 8/8 570 m
[Ns]
+12.2 +8.9 80 +10 +12 973.4
СЗ 2 5 км слабый дождь, дымка 10/8 720 m
[Ac Ns]
+11.7 +9.4 86 +11 +11 973.4
СЗ 4 6 км дождь 8/8 630 m
[Ns]
+12.8 +10.0 83 +11 +12 1025.0 973.8
СЗ 5
{7}
16 км 8/8 690 м +13.3 +8.9 75 +11 +13 1025.2 974.1 +10.0 +15.6 2.3
СЗ 3 16 км 8/8 630 м +14.4 +8.9 70 +14 +15 974.1
нст 2 16 км 8/8 780 m
[Ac]
+13.9 +8.3 69 +13 +16 1025.3 974.1
С 5 16 км 8/8 780 m
[Ac]
+15.0 +9.4 69 +14 +15 974.1
СЗ 4 16 км 8/8 810 м +15.0 +8.3 64 +14 +15 974.4
С 4 16 км 8/2 990 m
[Ac]
+14.4 +8.3 67 +13 +15 1025.5 974.4
СЗ 3 16 км 10/2 900 m
[Ac]
+13.3 +7.8 69 +12 +13 1026.2 975.0
С 4 16 км 10/2 600 m
[Ac]
+12.8 +8.9 77 +11 +12 1026.7 975.4
С 2 16 км 10/8 1800 m
[Ac]
+11.7 +8.9 83 +11 +11 1027.3 976.0
С 2 16 км 8/8 660 m
[Ac]
+11.1 +9.4 89 +10 +10 1027.8 976.7 +10.6 +15.6
штиль 0 16 км 10/8 630 m
[Ac]
+11.1 +9.4 89 +10 +10 976.7
СЗ 2 16 км 5/5 630 м +10.6 +9.4 92 +9 +9 1028.5 977.0
штиль 0 16 км 8/8 600 m
[Ac]
+10.6 +8.9 89 +10 +10 1029.0 977.6
С 2 16 км 10/10 420 м +10.6 +9.4 92 +9 +9 977.9
С 3 16 км 10/10 450 м +10.6 +9.4 92 +8 +8 977.9
С 3 14 км 10/10 150 м +11.0 +9.0 87 +9 +9 978.3
С 3 11 км слабый дождь 10/10 180 m
[Ns]
+10.6 +9.4 92 +8 +8 1029.5 978.3
С 2 11 км 10/10 120 м +10.0 +9.4 96 +8 +8 978.3
С 3 16 км 10/10 120 м +10.0 +9.4 96 +8 +8 978.6
С 2 16 км 10/10 120 м +10.6 +9.4 92 +9 +9 978.6
С 2 16 км 10/10 120 м +10.6 +9.4 92 +9 +9 1030.0 978.6
С 2 11 км 10/10 90 м +10.0 +9.4 96 +8 +8 978.9
С 2 14 км 10/10 90 м +10.0 +9.4 96 +8 +8 978.9
С 2 16 км 10/10 810 м +10.0 +9.4 96 +8 +8 1030.5 978.9
штиль 0 16 км 10/10 570 м +10.0 +9.4 96 +9 +9 1030.8 979.2 +10.0 +11.1
штиль 0 16 км 10/10 780 м +10.0 +9.4 96 +9 +9 979.5
штиль 0 16 км 10/10 780 м +10.0 +9.4 96 +9 +9 979.5
С 2 16 км 10/10 930 м +10.0 +9.0 93 +8 +8 979.2
штиль 0 16 км 10/10 750 м +10.0 +8.9 93 +9 +9 1030.8 979.2
Местоположение метеостанции Port Meadville Airport: широта 41.6264 долгота -80.2147 высота над уровнем моря 427 м.
В архиве по умолчанию представлена погода в Мидвилле за последние 1-2 суток. Обновление информации о фактической погоде в базе происходит ежечасно! Архивные данные за месяц целиком и за предыдущие месяцы Вы можете получить, выбрав интересующий диапазон дат из раскрывающегося списка и нажав кнопку "Ввод!".
Внимание! Архив погоды МЕТАР в базе сайта по станциям, не включенным в климатический монитор, хранится не более 60 дней. Нет смысла пытаться выбрать более раннюю дату.
*Определитесь, кто Вы:
Внимание! Время в таблицах - местное (без учета летнего времени). Для получения всемирного времени необходимо вычесть поправку, которая равна -5 ч.
Смотрите также архив погоды в соседних городах и на ближайших метеорологических станциях:
Партнеры нашего сайта:      
Пояснения к столбцам:
  • Ветер - указаны скорость ветра в м/с - средняя за 10 мин, порывы в срок и между сроками (в фигурных скобках) и направление, откуда дует ветер: С - северный,
  • СВ - северо-восточный, В - восточный, ЮВ - юго-восточный, Ю - южный, ЮЗ - юго-западный, З - западный, СЗ - северо-западный.
  • Видимость - горизонтальная дальность видимости в метрах или километрах. При видимости от 1 до 10 км при отсутствии осадков обычно наблюдается дымка, при ухудшении видимости до 1 км и менее - туман. В сухую погоду видимость может ухудшаться дымом, пылью или мглою.
  • Явления - указаны атмосферные явления, наблюдавшиеся в срок или в последний час перед сроком; фигурными скобками обозначены явления, наблюдавшиеся между сроками (за 1-3 часа до срока); квадратными скобками обозначены град или гололедные отложения с указанием их диаметра в мм.
  • Облачность - указаны через наклонную черту общая и нижняя облачность в баллах и высота нижней границы облаков в метрах; квадратными скобками обозначены формы облаков: Ci - перистые, Cs - перисто-слоистые, Cc - перисто-кучевые, Ac - высококучевые, As - высокослоистые, Sc - слоисто-кучевые, Ns - слоисто-дождевые, Cu - кучевые, Cb - кучево-дождевые. Подробнее классификацию облаков см. в Атласе облаков (PDF).
  • T - Температура воздуха - температура, измеренная на высоте 2 м над землей.
  • Td - Температура точки росы - температура, при понижении до которой содержащийся в воздухе водяной пар достигнет насыщения.
  • f - Относительная влажность воздуха - влажноcть воздуха, измеренная на высоте 2 м над землей.
  • Te - Эффективная температура - температура, которую ощущает одетый по сезону человек в тени. Характеристика душности погоды. При расчете учитывается влияние влажности воздуха и скорости ветра на теплоощущения человека.
  • Tes - Эффективная температура на солнце - температура, которую ощущает человек, с поправкой на солнечный нагрев. Характеристика знойности погоды. Зависит от высоты солнца над горизонтом, облачности и скорости ветра. Ночью, в пасмурную погоду, а также при ветре 12 м/с и более поправка равна нулю.
  • P - Атмосферное давление - приведенное к уровню моря атмосферное давление.
  • Po - Атмосферное давление - измеренное на уровне метеостанции атмосферное давление.
  • Tmin - Минимальная температура - минимум температуры воздуха на высоте 2 м над землей.
  • Tmax - Максимальная температура - максимум температуры воздуха на высоте 2 м над землей.
  • R - Количество осадков - Количество выпавших осадков за период времени, мм. При наведении курсора мыши на число - период времени, за который выпало указанное количество осадков.
  • R24 - Количество осадков - Количество выпавших осадков за 24 часа, мм.
  • S - Снежный покров - Высота снежного покрова, см. При наведении курсора мыши на число - состояние снежного покрова и степень покрытия местности в баллах.